Regional Weather Roundup
Issued by NWS Green Bay, WI

Home | Current Version | Previous Version | Text Only | Print | Product List | Glossary On
Versions: 1 2 3 4 5 6 7 8 9 10 11 12 13 14 15 16 17 18 19 20 21 22 23 24 25 26 27 28 29 30 31 32 33 34 35 36 37 38 39 40 41 42 43 44 45 46 47 48 49 50
000
ASUS43 KGRB 222210
RWRGRB

NORTH-CENTRAL AND NORTHEAST WISCONSIN REGIONAL WEATHER ROUNDUP
NATIONAL WEATHER SERVICE GREEN BAY WI
400 PM CST MON DEC 22 2014

WIZ005-009-010>012-018-019-222300-
NORTH CENTRAL WISCONSIN

CITY           SKY/WX    TMP DP  RH WIND       PRES   REMARKS
IRONWOOD       CLOUDY    36  34  93 SE7       29.71S
MANITOWISH WTR CLOUDY    33  33 100 SE7       29.73S FOG
ARBOR VITAE    CLOUDY    34  33  94 SE10G16   29.73F FOG
EAGLE RIVER    CLOUDY    33  33  99 SE6       29.75S FOG
LAND O LAKES   CLOUDY    33  33  98 SE7       29.77S FOG
RHINELANDER    CLOUDY    32  31  96 E10       29.74F FOG
PHILLIPS       CLOUDY    33  32  95 E6        29.70F FOG
ANTIGO         CLOUDY    32  31  96 SE13      29.75S FOG
TOMAHAWK       CLOUDY    32  31  96 CALM      29.73F FOG
MERRILL        CLOUDY    34  32  94 SE6       29.73S FOG
$$

WIZ013-073-222300-
NORTHEAST WISCONSIN

CITY           SKY/WX    TMP DP  RH WIND       PRES   REMARKS
IRON MOUNTAIN  CLOUDY    33  30  88 E8        29.81F FOG
MARINETTE      CLOUDY    36  30  80 E7        29.83F
OCONTO         CLOUDY    34  32  92 E3        29.82F
$$

WIZ017-030-035>037-045-222300-
CENTRAL WISCONSIN

CITY           SKY/WX    TMP DP  RH WIND       PRES   REMARKS
MEDFORD        CLOUDY    33  31  92 E7        29.70S FOG
WAUSAU         CLOUDY    34  31  88 E13G20    29.71S FOG
MOSINEE        CLOUDY    34  34 100 E6        29.72F FOG
MARSHFIELD     CLOUDY    35  30  82 E10       29.69F HAZE
WISC RAPIDS    CLOUDY    37  30  75 E10       29.71F
STEVENS POINT  CLOUDY    33  30  88 E13G18    29.73S FOG
WAUPACA        CLOUDY    38  32  80 E9        29.76S HAZE
SHAWANO        CLOUDY    37  32  84 E8        29.79F HAZE
CLINTONVILLE   CLOUDY    36  32  87 E10       29.78S HAZE
$$

WIZ038-039-048-051-222300-
FOX VALLEY

CITY           SKY/WX    TMP DP  RH WIND       PRES   REMARKS
NWS GREEN BAY  CLOUDY    36  32  85 E8        29.79F FOG
APPLETON       CLOUDY    36  30  80 E9        29.77S FOG
OSHKOSH        LGT SNOW  34  31  88 E9        29.74F FOG
FOND DU LAC    LGT SNOW  35  31  85 E9        29.74F FOG
$$

WIZ022-050-052-222300-
EAST CENTRAL WISCONSIN

CITY           SKY/WX    TMP DP  RH WIND       PRES   REMARKS
STURGEON BAY   CLOUDY    36  28  75 SE7       29.84F
MANITOWOC      LGT RAIN  36  34  92 SE14      29.80F
SHEBOYGAN      LGT RAIN  35  33  92 SE9       29.78F FOG
$$

LMZ563-521-522-541>543-222300-
LAKESHORE

STATION/POSITION TIME  TEMP    WIND        PRES    VSBY  WAVE
                       AIR SEA DIR/SP/G                  HT/PER
                 (UTC) (F)     (DEG/KT/KT) (MB)    (MI)  (FT/S)
SHEBOYGAN LKSHOR 2200   37 38  110/ 21/ 23 1009.1F
KEWAUNEE LKSHORE 2200   37     140/ 13/ 18 1009.0F
ALGOMA MARINA    2200          160/ 20/ 22   N/A
NORTHPORT PIER   2200   37     120/ 11/ 13 1011.2S
SISTER BAY LKSHO 2200          160/  9/ 12   N/A
STURGEON BAY CG  2200   37     130/ 13     1011.1      6   3
CHAMBERS ISLAND  2200   36     100/  4/  7 1011.2S
MENOMINEE LKSHOR 2200   35      80/  7/  8 1011.1F
$$



USA.gov is the U.S. government's official web portal to all federal, state and local government web resources and services.